Time,TemperatureF,DewpointF,PressureIn,WindDirection,WindDirectionDegrees,WindSpeedMPH,WindSpeedGustMPH,Humidity,HourlyPrecipIn,Conditions,Clouds,dailyrainin,SoftwareType,DateUTC
2013-03-11 00:03:00,39.6,9.9,30.23,WNW,295,0.0,0.0,29,0.00,,,0.00,VWS V14.01,2013-03-11 07:03:00,
2013-03-11 00:09:00,39.6,9.9,30.23,WNW,295,2.2,2.2,29,0.00,,,0.00,VWS V14.01,2013-03-11 07:09:00,
2013-03-11 00:14:00,39.7,10.1,30.23,WSW,257,0.0,2.2,29,0.00,,,0.00,VWS V14.01,2013-03-11 07:14:00,
2013-03-11 00:20:00,39.7,10.1,30.23,WSW,246,0.0,0.0,29,0.00,,,0.00,VWS V14.01,2013-03-11 07:20:00,
2013-03-11 00:25:00,39.7,10.1,30.23,WSW,237,2.7,2.7,29,0.00,,,0.00,VWS V14.01,2013-03-11 07:25:00,
2013-03-11 00:30:00,39.9,10.2,30.23,SW,227,4.0,4.0,29,0.00,,,0.00,VWS V14.01,2013-03-11 07:30:00,
2013-03-11 00:36:00,39.7,10.1,30.23,NW,318,0.0,0.0,29,0.00,,,0.00,VWS V14.01,2013-03-11 07:36:00,
2013-03-11 00:41:00,39.9,10.2,30.23,West,279,0.0,5.4,29,0.00,,,0.00,VWS V14.01,2013-03-11 07:41:00,
2013-03-11 00:47:00,40.1,10.4,30.23,SW,229,0.0,0.0,29,0.00,,,0.00,VWS V14.01,2013-03-11 07:47:00,
2013-03-11 00:52:00,39.6,9.9,30.23,WSW,237,0.0,0.0,29,0.00,,,0.00,VWS V14.01,2013-03-11 07:52:00,
2013-03-11 00:58:00,39.4,9.8,30.23,WSW,256,0.0,0.0,29,0.00,,,0.00,VWS V14.01,2013-03-11 07:58:00,
2013-03-11 01:04:00,39.9,10.2,30.23,NW,306,0.0,0.0,29,0.00,,,0.00,VWS V14.01,2013-03-11 08:04:00,
2013-03-11 01:10:00,39.6,9.9,30.23,WNW,290,0.0,0.0,29,0.00,,,0.00,VWS V14.01,2013-03-11 08:10:00,
2013-03-11 01:15:00,39.7,10.1,30.23,WSW,240,0.0,0.0,29,0.00,,,0.00,VWS V14.01,2013-03-11 08:15:00,
2013-03-11 01:21:00,39.9,10.2,30.23,WSW,240,0.0,0.0,29,0.00,,,0.00,VWS V14.01,2013-03-11 08:21:00,
2013-03-11 01:27:00,40.3,10.6,30.23,South,175,3.6,3.6,29,0.00,,,0.00,VWS V14.01,2013-03-11 08:27:00,
2013-03-11 01:33:00,40.3,10.6,30.23,WSW,245,2.7,3.6,29,0.00,,,0.00,VWS V14.01,2013-03-11 08:33:00,
2013-03-11 01:38:00,40.5,10.7,30.26,WNW,285,0.0,0.0,29,0.00,,,0.00,VWS V14.01,2013-03-11 08:38:00,
2013-03-11 01:44:00,40.1,10.4,30.26,SW,224,0.0,0.0,29,0.00,,,0.00,VWS V14.01,2013-03-11 08:44:00,
2013-03-11 01:49:00,39.7,10.1,30.26,West,264,2.7,2.7,29,0.00,,,0.00,VWS V14.01,2013-03-11 08:49:00,
2013-03-11 01:55:00,39.9,10.2,30.23,West,264,0.0,0.0,29,0.00,,,0.00,VWS V14.01,2013-03-11 08:55:00,
2013-03-11 02:01:00,40.3,10.6,30.23,WSW,238,0.0,4.0,29,0.00,,,0.00,VWS V14.01,2013-03-11 09:01:00,
2013-03-11 02:06:00,40.5,10.7,30.23,SW,218,0.0,0.0,29,0.00,,,0.00,VWS V14.01,2013-03-11 09:06:00,
2013-03-11 02:12:00,40.5,10.7,30.26,SW,220,2.7,2.7,29,0.00,,,0.00,VWS V14.01,2013-03-11 09:12:00,
2013-03-11 02:17:00,40.6,10.9,30.26,West,264,0.0,4.9,29,0.00,,,0.00,VWS V14.01,2013-03-11 09:17:00,
2013-03-11 02:23:00,40.6,10.9,30.26,WSW,237,0.0,0.0,29,0.00,,,0.00,VWS V14.01,2013-03-11 09:23:00,
2013-03-11 02:28:00,40.3,10.6,30.26,SW,223,4.9,4.9,29,0.00,,,0.00,VWS V14.01,2013-03-11 09:28:00,
2013-03-11 02:34:00,40.5,10.7,30.26,WSW,251,2.2,3.1,29,0.00,,,0.00,VWS V14.01,2013-03-11 09:34:00,
2013-03-11 02:39:00,40.5,10.7,30.26,WSW,243,8.3,8.3,29,0.00,,,0.00,VWS V14.01,2013-03-11 09:39:00,
2013-03-11 02:45:00,40.3,10.6,30.26,SW,232,0.0,3.1,29,0.00,,,0.00,VWS V14.01,2013-03-11 09:45:00,
2013-03-11 02:50:00,40.1,10.4,30.26,SW,234,4.9,4.9,29,0.00,,,0.00,VWS V14.01,2013-03-11 09:50:00,
2013-03-11 02:57:00,40.3,10.6,30.26,SSW,210,4.0,4.0,29,0.00,,,0.00,VWS V14.01,2013-03-11 09:57:00,
2013-03-11 03:02:00,40.3,10.6,30.26,SW,223,5.4,5.4,29,0.00,,,0.00,VWS V14.01,2013-03-11 10:02:00,
2013-03-11 03:08:00,39.9,10.2,30.26,SW,234,0.0,0.0,29,0.00,,,0.00,VWS V14.01,2013-03-11 10:08:00,
2013-03-11 03:14:00,40.1,10.4,30.26,WSW,237,8.3,8.3,29,0.00,,,0.00,VWS V14.01,2013-03-11 10:14:00,
2013-03-11 03:20:00,39.9,10.2,30.26,WSW,251,2.7,2.7,29,0.00,,,0.00,VWS V14.01,2013-03-11 10:20:00,
2013-03-11 03:26:00,39.7,10.1,30.26,SW,234,2.7,2.7,29,0.00,,,0.00,VWS V14.01,2013-03-11 10:26:00,
2013-03-11 03:31:00,39.4,9.8,30.26,WSW,238,0.0,4.0,29,0.00,,,0.00,VWS V14.01,2013-03-11 10:31:00,
2013-03-11 03:36:00,39.4,9.8,30.26,SW,232,0.0,0.0,29,0.00,,,0.00,VWS V14.01,2013-03-11 10:36:00,
2013-03-11 03:42:00,39.4,9.8,30.26,SW,234,4.0,8.3,29,0.00,,,0.00,VWS V14.01,2013-03-11 10:42:00,
2013-03-11 03:47:00,39.2,9.6,30.26,WSW,257,0.0,0.0,29,0.00,,,0.00,VWS V14.01,2013-03-11 10:47:00,
2013-03-11 03:52:00,39.0,9.5,30.26,SW,236,4.9,4.9,29,0.00,,,0.00,VWS V14.01,2013-03-11 10:52:00,
2013-03-11 03:58:00,38.8,9.3,30.26,WSW,242,0.0,4.9,29,0.00,,,0.00,VWS V14.01,2013-03-11 10:58:00,
2013-03-11 04:04:00,38.7,9.2,30.26,SSW,205,3.6,3.6,29,0.00,,,0.00,VWS V14.01,2013-03-11 11:04:00,
2013-03-11 04:09:00,38.8,9.3,30.26,SW,218,3.6,3.6,29,0.00,,,0.00,VWS V14.01,2013-03-11 11:09:00,
2013-03-11 04:14:00,38.7,9.2,30.26,SW,230,0.0,3.6,29,0.00,,,0.00,VWS V14.01,2013-03-11 11:14:00,
2013-03-11 04:20:00,38.8,9.3,30.26,SW,232,8.7,8.7,29,0.00,,,0.00,VWS V14.01,2013-03-11 11:20:00,
2013-03-11 04:26:00,38.7,9.2,30.26,SSW,211,3.6,3.6,29,0.00,,,0.00,VWS V14.01,2013-03-11 11:26:00,
2013-03-11 04:31:00,38.7,9.2,30.26,West,267,6.3,6.3,29,0.00,,,0.00,VWS V14.01,2013-03-11 11:31:00,
2013-03-11 04:37:00,38.5,9.0,30.26,WSW,248,5.4,5.4,29,0.00,,,0.00,VWS V14.01,2013-03-11 11:37:00,
2013-03-11 04:43:00,38.5,9.0,30.26,SW,231,2.2,2.2,29,0.00,,,0.00,VWS V14.01,2013-03-11 11:43:00,
2013-03-11 04:48:00,38.5,9.0,30.26,SSW,206,6.3,6.3,29,0.00,,,0.00,VWS V14.01,2013-03-11 11:48:00,
2013-03-11 04:54:00,38.3,8.8,30.26,SW,220,8.3,8.3,29,0.00,,,0.00,VWS V14.01,2013-03-11 11:54:00,
2013-03-11 04:59:00,38.3,8.8,30.26,SSW,198,6.3,6.3,29,0.00,,,0.00,VWS V14.01,2013-03-11 11:59:00,
2013-03-11 05:04:00,38.1,8.7,30.26,SW,222,2.2,2.2,29,0.00,,,0.00,VWS V14.01,2013-03-11 12:04:00,
2013-03-11 05:10:00,38.3,8.8,30.26,SW,214,7.6,7.6,29,0.00,,,0.00,VWS V14.01,2013-03-11 12:10:00,
2013-03-11 05:15:00,38.3,8.8,30.26,SSW,209,11.0,11.0,29,0.00,,,0.00,VWS V14.01,2013-03-11 12:15:00,
2013-03-11 05:22:00,38.1,8.7,30.26,SSW,208,3.6,3.6,29,0.00,,,0.00,VWS V14.01,2013-03-11 12:22:00,
2013-03-11 05:28:00,37.9,8.5,30.26,SW,236,4.0,4.0,29,0.00,,,0.00,VWS V14.01,2013-03-11 12:28:00,
2013-03-11 05:34:00,37.8,8.4,30.26,WNW,286,2.7,2.7,29,0.00,,,0.00,VWS V14.01,2013-03-11 12:34:00,
2013-03-11 05:40:00,37.6,8.2,30.26,WNW,285,0.0,0.0,29,0.00,,,0.00,VWS V14.01,2013-03-11 12:40:00,
2013-03-11 05:46:00,37.4,8.1,30.26,West,266,0.0,0.0,29,0.00,,,0.00,VWS V14.01,2013-03-11 12:46:00,
2013-03-11 05:51:00,37.2,8.6,30.26,WSW,258,0.0,0.0,30,0.00,,,0.00,VWS V14.01,2013-03-11 12:51:00,
2013-03-11 05:57:00,37.0,8.5,30.26,West,260,0.0,0.0,30,0.00,,,0.00,VWS V14.01,2013-03-11 12:57:00,
2013-03-11 06:02:00,37.0,8.5,30.26,WNW,295,2.2,2.2,30,0.00,,,0.00,VWS V14.01,2013-03-11 13:02:00,
2013-03-11 06:08:00,37.0,8.5,30.26,West,259,0.0,0.0,30,0.00,,,0.00,VWS V14.01,2013-03-11 13:08:00,
2013-03-11 06:13:00,36.9,8.3,30.26,WSW,253,0.0,0.0,30,0.00,,,0.00,VWS V14.01,2013-03-11 13:13:00,
2013-03-11 06:18:00,36.9,8.3,30.26,WSW,257,0.0,0.0,30,0.00,,,0.00,VWS V14.01,2013-03-11 13:18:00,
2013-03-11 06:24:00,36.9,8.3,30.26,West,269,0.0,0.0,30,0.00,,,0.00,VWS V14.01,2013-03-11 13:24:00,
2013-03-11 06:30:00,36.9,8.3,30.26,WSW,244,3.6,5.8,30,0.00,,,0.00,VWS V14.01,2013-03-11 13:30:00,
2013-03-11 06:35:00,36.9,8.3,30.26,SW,218,3.6,3.6,30,0.00,,,0.00,VWS V14.01,2013-03-11 13:35:00,
2013-03-11 06:40:00,36.9,8.3,30.26,WSW,239,0.0,0.0,30,0.00,,,0.00,VWS V14.01,2013-03-11 13:40:00,
2013-03-11 06:46:00,36.9,8.3,30.26,WSW,249,5.4,5.4,30,0.00,,,0.00,VWS V14.01,2013-03-11 13:46:00,
2013-03-11 06:51:00,36.9,8.3,30.26,SW,217,2.2,2.2,30,0.00,,,0.00,VWS V14.01,2013-03-11 13:51:00,
2013-03-11 06:56:00,36.9,8.3,30.26,WSW,256,8.1,8.1,30,0.00,,,0.00,VWS V14.01,2013-03-11 13:56:00,
2013-03-11 07:02:00,36.9,8.3,30.26,West,261,0.0,0.0,30,0.00,,,0.00,VWS V14.01,2013-03-11 14:02:00,
2013-03-11 07:08:00,36.9,8.3,30.26,WNW,286,0.0,5.4,30,0.00,,,0.00,VWS V14.01,2013-03-11 14:08:00,
2013-03-11 07:13:00,37.0,8.5,30.26,WNW,296,4.0,5.8,30,0.00,,,0.00,VWS V14.01,2013-03-11 14:13:00,
2013-03-11 07:19:00,36.9,8.3,30.26,WSW,257,0.0,0.0,30,0.00,,,0.00,VWS V14.01,2013-03-11 14:19:00,
2013-03-11 07:24:00,36.7,8.2,30.26,South,170,2.2,2.7,30,0.00,,,0.00,VWS V14.01,2013-03-11 14:24:00,
2013-03-11 07:29:00,36.7,8.2,30.26,West,281,3.1,3.1,30,0.00,,,0.00,VWS V14.01,2013-03-11 14:29:00,
2013-03-11 07:35:00,36.5,8.0,30.26,SW,227,2.7,2.7,30,0.00,,,0.00,VWS V14.01,2013-03-11 14:35:00,
2013-03-11 07:40:00,36.3,7.9,30.26,NNW,331,0.0,0.0,30,0.00,,,0.00,VWS V14.01,2013-03-11 14:40:00,
2013-03-11 07:46:00,36.1,7.7,30.26,East,100,0.0,0.0,30,0.00,,,0.00,VWS V14.01,2013-03-11 14:46:00,
2013-03-11 07:53:00,35.8,7.4,30.26,ENE,63,0.0,0.0,30,0.00,,,0.00,VWS V14.01,2013-03-11 14:53:00,
2013-03-11 07:59:00,35.4,7.1,30.26,ENE,63,0.0,0.0,30,0.00,,,0.00,VWS V14.01,2013-03-11 14:59:00,
2013-03-11 08:04:00,35.2,6.9,30.26,NNE,14,0.0,0.0,30,0.00,,,0.00,VWS V14.01,2013-03-11 15:04:00,
2013-03-11 08:10:00,35.1,6.8,30.26,NNE,14,0.0,0.0,30,0.00,,,0.00,VWS V14.01,2013-03-11 15:10:00,
2013-03-11 08:15:00,35.1,6.8,30.26,ENE,78,4.0,4.0,30,0.00,,,0.00,VWS V14.01,2013-03-11 15:15:00,
2013-03-11 08:21:00,34.9,6.6,30.26,East,79,0.0,0.0,30,0.00,,,0.00,VWS V14.01,2013-03-11 15:21:00,
2013-03-11 08:26:00,34.5,6.3,30.26,SSE,158,3.1,3.1,30,0.00,,,0.00,VWS V14.01,2013-03-11 15:26:00,
2013-03-11 08:32:00,34.3,6.1,30.26,ESE,102,2.7,2.7,30,0.00,,,0.00,VWS V14.01,2013-03-11 15:32:00,
2013-03-11 08:38:00,34.0,5.8,30.26,ESE,104,0.0,0.0,30,0.00,,,0.00,VWS V14.01,2013-03-11 15:38:00,
2013-03-11 08:43:00,34.2,6.0,30.26,ESE,104,0.0,0.0,30,0.00,,,0.00,VWS V14.01,2013-03-11 15:43:00,
2013-03-11 08:49:00,34.0,5.8,30.26,ESE,104,0.0,0.0,30,0.00,,,0.00,VWS V14.01,2013-03-11 15:49:00,
2013-03-11 08:54:00,33.8,5.7,30.26,ESE,109,4.0,4.0,30,0.00,,,0.00,VWS V14.01,2013-03-11 15:54:00,
2013-03-11 09:00:00,34.0,5.8,30.26,East,100,4.0,4.0,30,0.00,,,0.00,VWS V14.01,2013-03-11 16:00:00,
2013-03-11 09:05:00,33.8,5.7,30.26,ESE,109,4.9,5.4,30,0.00,,,0.00,VWS V14.01,2013-03-11 16:05:00,
2013-03-11 09:11:00,34.0,5.8,30.26,ESE,106,3.6,4.9,30,0.00,,,0.00,VWS V14.01,2013-03-11 16:11:00,
2013-03-11 09:16:00,34.2,6.0,30.26,ESE,112,0.0,3.6,30,0.00,,,0.00,VWS V14.01,2013-03-11 16:16:00,
2013-03-11 09:21:00,34.3,6.1,30.26,East,99,2.7,2.7,30,0.00,,,0.00,VWS V14.01,2013-03-11 16:21:00,
2013-03-11 09:26:00,34.5,6.3,30.26,ESE,107,0.0,3.1,30,0.00,,,0.00,VWS V14.01,2013-03-11 16:26:00,
2013-03-11 09:32:00,34.9,6.6,30.26,ESE,120,3.1,4.0,30,0.00,,,0.00,VWS V14.01,2013-03-11 16:32:00,
2013-03-11 09:37:00,34.9,6.6,30.26,ESE,111,3.6,3.6,30,0.00,,,0.00,VWS V14.01,2013-03-11 16:37:00,
2013-03-11 09:42:00,35.1,6.8,30.26,ESE,111,3.6,3.6,30,0.00,,,0.00,VWS V14.01,2013-03-11 16:42:00,
2013-03-11 09:48:00,35.2,6.9,30.26,ESE,111,2.7,2.7,30,0.00,,,0.00,VWS V14.01,2013-03-11 16:48:00,
2013-03-11 09:54:00,35.8,7.4,30.26,ESE,111,0.0,0.0,30,0.00,,,0.00,VWS V14.01,2013-03-11 16:54:00,
2013-03-11 10:00:00,35.8,7.4,30.26,ESE,112,0.0,0.0,30,0.00,,,0.00,VWS V14.01,2013-03-11 17:00:00,
2013-03-11 10:06:00,36.3,7.9,30.26,ESE,110,0.0,0.0,30,0.00,,,0.00,VWS V14.01,2013-03-11 17:06:00,
2013-03-11 10:13:00,36.5,8.0,30.26,ESE,110,0.0,0.0,30,0.00,,,0.00,VWS V14.01,2013-03-11 17:13:00,
2013-03-11 10:18:00,36.7,8.2,30.26,ESE,110,0.0,0.0,30,0.00,,,0.00,VWS V14.01,2013-03-11 17:18:00,
2013-03-11 10:24:00,36.9,8.3,30.26,ESE,110,0.0,0.0,30,0.00,,,0.00,VWS V14.01,2013-03-11 17:24:00,
2013-03-11 10:29:00,37.0,8.5,30.26,ESE,110,0.0,0.0,30,0.00,,,0.00,VWS V14.01,2013-03-11 17:29:00,
2013-03-11 10:34:00,37.2,8.6,30.26,ESE,110,0.0,0.0,30,0.00,,,0.00,VWS V14.01,2013-03-11 17:34:00,
2013-03-11 10:39:00,37.6,8.2,30.26,ESE,110,0.0,0.0,29,0.00,,,0.00,VWS V14.01,2013-03-11 17:39:00,
2013-03-11 10:45:00,37.8,8.4,30.26,ESE,110,0.0,0.0,29,0.00,,,0.00,VWS V14.01,2013-03-11 17:45:00,
2013-03-11 10:50:00,38.1,8.7,30.26,ESE,110,0.0,0.0,29,0.00,,,0.00,VWS V14.01,2013-03-11 17:50:00,
2013-03-11 10:56:00,38.7,9.2,30.26,ESE,110,0.0,0.0,29,0.00,,,0.00,VWS V14.01,2013-03-11 17:56:00,
2013-03-11 11:02:00,38.8,9.3,30.26,ESE,110,0.0,0.0,29,0.00,,,0.00,VWS V14.01,2013-03-11 18:02:00,
2013-03-11 11:07:00,39.4,9.8,30.26,ESE,110,0.0,0.0,29,0.00,,,0.00,VWS V14.01,2013-03-11 18:07:00,
2013-03-11 11:12:00,39.6,9.9,30.26,ESE,110,0.0,0.0,29,0.00,,,0.00,VWS V14.01,2013-03-11 18:12:00,
2013-03-11 11:17:00,39.6,9.9,30.26,ESE,110,0.0,0.0,29,0.00,,,0.00,VWS V14.01,2013-03-11 18:17:00,
2013-03-11 11:23:00,39.9,10.2,30.26,ESE,110,0.0,0.0,29,0.00,,,0.00,VWS V14.01,2013-03-11 18:23:00,
2013-03-11 11:29:00,40.3,10.6,30.26,ESE,110,0.0,0.0,29,0.00,,,0.00,VWS V14.01,2013-03-11 18:29:00,
2013-03-11 11:34:00,40.6,10.9,30.26,ESE,110,0.0,0.0,29,0.00,,,0.00,VWS V14.01,2013-03-11 18:34:00,
2013-03-11 11:40:00,41.0,10.4,30.26,ESE,110,0.0,0.0,28,0.00,,,0.00,VWS V14.01,2013-03-11 18:40:00,
2013-03-11 11:45:00,41.2,10.6,30.26,ESE,110,0.0,0.0,28,0.00,,,0.00,VWS V14.01,2013-03-11 18:45:00,
2013-03-11 11:51:00,41.4,10.7,30.26,ESE,110,0.0,0.0,28,0.00,,,0.00,VWS V14.01,2013-03-11 18:51:00,
2013-03-11 11:56:00,41.2,10.6,30.26,ESE,110,0.0,0.0,28,0.00,,,0.00,VWS V14.01,2013-03-11 18:56:00,
2013-03-11 12:02:00,41.7,11.0,30.26,ESE,110,0.0,0.0,28,0.00,,,0.00,VWS V14.01,2013-03-11 19:02:00,
2013-03-11 12:07:00,42.1,11.3,30.23,ESE,110,0.0,0.0,28,0.00,,,0.00,VWS V14.01,2013-03-11 19:07:00,
2013-03-11 12:13:00,41.7,11.8,30.23,ESE,110,0.0,0.0,29,0.00,,,0.00,VWS V14.01,2013-03-11 19:13:00,
2013-03-11 12:19:00,41.7,11.0,30.23,ESE,110,0.0,0.0,28,0.00,,,0.00,VWS V14.01,2013-03-11 19:19:00,
2013-03-11 12:24:00,42.1,11.3,30.23,NW,326,0.0,0.0,28,0.00,,,0.00,VWS V14.01,2013-03-11 19:24:00,
2013-03-11 12:30:00,42.6,11.8,30.23,NNW,336,0.0,0.0,28,0.00,,,0.00,VWS V14.01,2013-03-11 19:30:00,
2013-03-11 12:36:00,43.3,12.4,30.23,ESE,102,0.0,0.0,28,0.00,,,0.00,VWS V14.01,2013-03-11 19:36:00,
2013-03-11 12:42:00,43.0,12.1,30.23,ESE,102,0.0,0.0,28,0.00,,,0.00,VWS V14.01,2013-03-11 19:42:00,
2013-03-11 12:47:00,43.0,12.1,30.23,ESE,102,0.0,0.0,28,0.00,,,0.00,VWS V14.01,2013-03-11 19:47:00,
2013-03-11 12:52:00,43.5,12.6,30.23,ESE,102,0.0,0.0,28,0.00,,,0.00,VWS V14.01,2013-03-11 19:52:00,
2013-03-11 12:58:00,43.3,12.4,30.23,ESE,102,0.0,0.0,28,0.00,,,0.00,VWS V14.01,2013-03-11 19:58:00,
2013-03-11 13:03:00,43.3,12.4,30.23,ESE,102,0.0,0.0,28,0.00,,,0.00,VWS V14.01,2013-03-11 20:03:00,
2013-03-11 13:09:00,44.1,13.1,30.23,ESE,102,0.0,0.0,28,0.00,,,0.00,VWS V14.01,2013-03-11 20:09:00,
2013-03-11 13:14:00,44.2,10.7,30.23,ESE,102,0.0,0.0,25,0.00,,,0.00,VWS V14.01,2013-03-11 20:14:00,
2013-03-11 13:20:00,46.0,9.3,30.23,ESE,102,0.0,0.0,22,0.00,,,0.00,VWS V14.01,2013-03-11 20:20:00,
2013-03-11 13:26:00,44.8,11.1,30.23,SE,127,0.0,3.1,25,0.00,,,0.00,VWS V14.01,2013-03-11 20:26:00,
2013-03-11 13:32:00,46.0,12.2,30.23,SE,127,0.0,0.0,25,0.00,,,0.00,VWS V14.01,2013-03-11 20:32:00,
2013-03-11 13:37:00,46.2,9.5,30.20,SE,127,0.0,0.0,22,0.00,,,0.00,VWS V14.01,2013-03-11 20:37:00,
2013-03-11 13:42:00,46.6,9.8,30.20,SE,127,0.0,0.0,22,0.00,,,0.00,VWS V14.01,2013-03-11 20:42:00,
2013-03-11 13:48:00,47.1,10.2,30.20,SE,130,0.0,0.0,22,0.00,,,0.00,VWS V14.01,2013-03-11 20:48:00,
2013-03-11 13:54:00,47.8,10.9,30.20,SE,131,0.0,0.0,22,0.00,,,0.00,VWS V14.01,2013-03-11 20:54:00,
2013-03-11 13:59:00,48.7,10.6,30.20,SE,131,0.0,0.0,21,0.00,,,0.00,VWS V14.01,2013-03-11 20:59:00,
2013-03-11 14:05:00,48.9,10.7,30.20,SE,130,0.0,0.0,21,0.00,,,0.00,VWS V14.01,2013-03-11 21:05:00,
2013-03-11 14:10:00,47.8,10.9,30.20,ESE,111,0.0,0.0,22,0.00,,,0.00,VWS V14.01,2013-03-11 21:10:00,
2013-03-11 14:17:00,47.7,10.7,30.20,ESE,111,0.0,0.0,22,0.00,,,0.00,VWS V14.01,2013-03-11 21:17:00,
2013-03-11 14:22:00,48.0,11.0,30.20,ESE,111,0.0,0.0,22,0.00,,,0.00,VWS V14.01,2013-03-11 21:22:00,
2013-03-11 14:27:00,47.8,10.9,30.20,ESE,111,0.0,0.0,22,0.00,,,0.00,VWS V14.01,2013-03-11 21:27:00,
2013-03-11 14:32:00,48.4,10.3,30.20,ESE,111,0.0,0.0,21,0.00,,,0.00,VWS V14.01,2013-03-11 21:32:00,
2013-03-11 14:38:00,48.4,10.3,30.17,ESE,111,0.0,0.0,21,0.00,,,0.00,VWS V14.01,2013-03-11 21:38:00,
2013-03-11 14:44:00,48.2,10.1,30.17,ESE,111,0.0,0.0,21,0.00,,,0.00,VWS V14.01,2013-03-11 21:44:00,
2013-03-11 14:49:00,48.7,10.6,30.17,North,6,0.0,0.0,21,0.00,,,0.00,VWS V14.01,2013-03-11 21:49:00,
2013-03-11 14:55:00,48.4,10.3,30.17,NNE,12,0.0,0.0,21,0.00,,,0.00,VWS V14.01,2013-03-11 21:55:00,
2013-03-11 15:00:00,48.0,11.0,30.17,NNE,12,0.0,0.0,22,0.00,,,0.00,VWS V14.01,2013-03-11 22:00:00,
2013-03-11 15:07:00,48.0,13.0,30.17,NNE,12,0.0,0.0,24,0.00,,,0.00,VWS V14.01,2013-03-11 22:07:00,
2013-03-11 15:12:00,48.7,10.6,30.17,NNE,24,0.0,0.0,21,0.00,,,0.00,VWS V14.01,2013-03-11 22:12:00,
2013-03-11 15:17:00,49.3,11.0,30.17,NNE,24,0.0,0.0,21,0.00,,,0.00,VWS V14.01,2013-03-11 22:17:00,
2013-03-11 15:23:00,49.5,11.2,30.17,NE,55,0.0,0.0,21,0.00,,,0.00,VWS V14.01,2013-03-11 22:23:00,
2013-03-11 15:29:00,50.0,9.4,30.17,NE,55,0.0,0.0,19,0.00,,,0.00,VWS V14.01,2013-03-11 22:29:00,
2013-03-11 15:34:00,50.0,11.6,30.17,NE,55,0.0,0.0,21,0.00,,,0.00,VWS V14.01,2013-03-11 22:34:00,
2013-03-11 15:39:00,50.0,11.6,30.17,NE,55,0.0,0.0,21,0.00,,,0.00,VWS V14.01,2013-03-11 22:39:00,
2013-03-11 15:45:00,49.6,11.3,30.17,NE,55,0.0,0.0,21,0.00,,,0.00,VWS V14.01,2013-03-11 22:45:00,
2013-03-11 15:50:00,49.1,10.9,30.17,NE,55,0.0,0.0,21,0.00,,,0.00,VWS V14.01,2013-03-11 22:50:00,
2013-03-11 15:56:00,49.3,11.0,30.17,NE,55,0.0,0.0,21,0.00,,,0.00,VWS V14.01,2013-03-11 22:56:00,
2013-03-11 16:01:00,49.1,10.9,30.17,East,83,3.1,3.1,21,0.00,,,0.00,VWS V14.01,2013-03-11 23:01:00,
2013-03-11 16:07:00,48.7,10.6,30.17,East,83,0.0,0.0,21,0.00,,,0.00,VWS V14.01,2013-03-11 23:07:00,
2013-03-11 16:12:00,48.6,10.4,30.17,South,175,0.0,0.0,21,0.00,,,0.00,VWS V14.01,2013-03-11 23:12:00,
2013-03-11 16:17:00,49.1,10.9,30.17,SSW,200,0.0,0.0,21,0.00,,,0.00,VWS V14.01,2013-03-11 23:17:00,
2013-03-11 16:23:00,48.9,10.7,30.14,ESE,102,0.0,0.0,21,0.00,,,0.00,VWS V14.01,2013-03-11 23:23:00,
2013-03-11 16:28:00,49.3,8.8,30.14,East,86,0.0,0.0,19,0.00,,,0.00,VWS V14.01,2013-03-11 23:28:00,
2013-03-11 16:34:00,49.8,9.2,30.14,East,86,0.0,0.0,19,0.00,,,0.00,VWS V14.01,2013-03-11 23:34:00,
2013-03-11 16:39:00,49.8,9.2,30.14,East,86,0.0,0.0,19,0.00,,,0.00,VWS V14.01,2013-03-11 23:39:00,
2013-03-11 16:45:00,50.2,9.5,30.14,SSW,202,4.9,4.9,19,0.00,,,0.00,VWS V14.01,2013-03-11 23:45:00,
2013-03-11 16:50:00,50.5,9.8,30.14,SSW,210,3.1,3.1,19,0.00,,,0.00,VWS V14.01,2013-03-11 23:50:00,
2013-03-11 16:56:00,49.8,9.2,30.14,WSW,253,3.1,3.1,19,0.00,,,0.00,VWS V14.01,2013-03-11 23:56:00,
2013-03-11 17:01:00,49.6,9.1,30.14,SW,234,3.6,4.0,19,0.00,,,0.00,VWS V14.01,2013-03-12 00:01:00,
2013-03-11 17:07:00,49.3,8.8,30.14,SW,233,4.5,4.5,19,0.00,,,0.00,VWS V14.01,2013-03-12 00:07:00,
2013-03-11 17:12:00,48.7,8.3,30.14,SW,235,0.0,0.0,19,0.00,,,0.00,VWS V14.01,2013-03-12 00:12:00,
2013-03-11 17:17:00,49.1,8.6,30.14,SW,228,4.0,4.0,19,0.00,,,0.00,VWS V14.01,2013-03-12 00:17:00,
2013-03-11 17:23:00,49.1,8.6,30.14,WSW,253,4.9,4.9,19,0.00,,,0.00,VWS V14.01,2013-03-12 00:23:00,
2013-03-11 17:28:00,48.9,8.5,30.14,WSW,250,2.7,4.9,19,0.00,,,0.00,VWS V14.01,2013-03-12 00:28:00,
2013-03-11 17:33:00,48.7,8.3,30.14,WSW,250,2.7,2.7,19,0.00,,,0.00,VWS V14.01,2013-03-12 00:33:00,
2013-03-11 17:38:00,49.1,8.6,30.14,WSW,255,4.0,4.0,19,0.00,,,0.00,VWS V14.01,2013-03-12 00:38:00,
2013-03-11 17:44:00,48.9,8.5,30.14,South,186,5.4,5.4,19,0.00,,,0.00,VWS V14.01,2013-03-12 00:44:00,
2013-03-11 17:49:00,48.9,8.5,30.14,SW,226,3.1,3.1,19,0.00,,,0.00,VWS V14.01,2013-03-12 00:49:00,
2013-03-11 17:55:00,48.7,8.3,30.14,SW,233,4.0,4.0,19,0.00,,,0.00,VWS V14.01,2013-03-12 00:55:00,
2013-03-11 18:00:00,48.6,8.2,30.14,SW,219,5.8,5.8,19,0.00,,,0.00,VWS V14.01,2013-03-12 01:00:00,
2013-03-11 18:05:00,48.2,7.9,30.14,SW,219,5.8,5.8,19,0.00,,,0.00,VWS V14.01,2013-03-12 01:05:00,
2013-03-11 18:11:00,48.0,7.7,30.14,West,276,0.0,0.0,19,0.00,,,0.00,VWS V14.01,2013-03-12 01:11:00,
2013-03-11 18:17:00,47.7,7.4,30.14,NW,317,0.0,0.0,19,0.00,,,0.00,VWS V14.01,2013-03-12 01:17:00,
2013-03-11 18:22:00,47.5,7.3,30.14,NW,317,0.0,0.0,19,0.00,,,0.00,VWS V14.01,2013-03-12 01:22:00,
2013-03-11 18:27:00,47.3,7.1,30.14,NW,317,0.0,0.0,19,0.00,,,0.00,VWS V14.01,2013-03-12 01:27:00,
2013-03-11 18:32:00,47.1,7.0,30.14,SSW,193,0.0,0.0,19,0.00,,,0.00,VWS V14.01,2013-03-12 01:32:00,
2013-03-11 18:38:00,47.1,7.0,30.14,SSW,193,0.0,0.0,19,0.00,,,0.00,VWS V14.01,2013-03-12 01:38:00,
2013-03-11 18:43:00,46.9,6.8,30.14,WNW,294,0.0,0.0,19,0.00,,,0.00,VWS V14.01,2013-03-12 01:43:00,
2013-03-11 18:48:00,46.8,6.7,30.14,WNW,294,0.0,0.0,19,0.00,,,0.00,VWS V14.01,2013-03-12 01:48:00,
2013-03-11 18:54:00,46.6,6.5,30.14,WNW,294,0.0,0.0,19,0.00,,,0.00,VWS V14.01,2013-03-12 01:54:00,
2013-03-11 19:00:00,46.6,6.5,30.14,WNW,294,0.0,0.0,19,0.00,,,0.00,VWS V14.01,2013-03-12 02:00:00,
2013-03-11 19:05:00,46.2,9.5,30.14,WNW,294,0.0,0.0,22,0.00,,,0.00,VWS V14.01,2013-03-12 02:05:00,
2013-03-11 19:10:00,45.9,9.2,30.14,WNW,294,0.0,0.0,22,0.00,,,0.00,VWS V14.01,2013-03-12 02:10:00,
2013-03-11 19:16:00,45.5,8.9,30.14,WNW,294,0.0,0.0,22,0.00,,,0.00,VWS V14.01,2013-03-12 02:16:00,
2013-03-11 19:21:00,45.7,6.9,30.14,WNW,294,0.0,0.0,20,0.00,,,0.00,VWS V14.01,2013-03-12 02:21:00,
2013-03-11 19:26:00,45.9,7.1,30.14,WNW,294,0.0,0.0,20,0.00,,,0.00,VWS V14.01,2013-03-12 02:26:00,
2013-03-11 19:31:00,46.0,7.2,30.14,WNW,294,0.0,0.0,20,0.00,,,0.00,VWS V14.01,2013-03-12 02:31:00,
2013-03-11 19:37:00,46.4,6.4,30.14,WNW,294,0.0,0.0,19,0.00,,,0.00,VWS V14.01,2013-03-12 02:37:00,
2013-03-11 19:42:00,46.4,6.4,30.14,WNW,294,0.0,0.0,19,0.00,,,0.00,VWS V14.01,2013-03-12 02:42:00,
2013-03-11 19:48:00,46.4,9.6,30.14,WNW,294,0.0,0.0,22,0.00,,,0.00,VWS V14.01,2013-03-12 02:48:00,
2013-03-11 19:54:00,45.9,9.2,30.14,WNW,294,0.0,0.0,22,0.00,,,0.00,VWS V14.01,2013-03-12 02:54:00,
2013-03-11 19:59:00,45.5,8.9,30.14,WNW,294,0.0,0.0,22,0.00,,,0.00,VWS V14.01,2013-03-12 02:59:00,
2013-03-11 20:05:00,45.3,8.7,30.14,WNW,294,0.0,0.0,22,0.00,,,0.00,VWS V14.01,2013-03-12 03:05:00,
2013-03-11 20:10:00,45.5,8.9,30.14,WNW,294,0.0,0.0,22,0.00,,,0.00,VWS V14.01,2013-03-12 03:10:00,
2013-03-11 20:16:00,45.9,9.2,30.14,SSW,207,0.0,0.0,22,0.00,,,0.00,VWS V14.01,2013-03-12 03:16:00,
2013-03-11 20:22:00,46.0,9.3,30.14,SSW,208,0.0,0.0,22,0.00,,,0.00,VWS V14.01,2013-03-12 03:22:00,
2013-03-11 20:28:00,44.6,8.1,30.14,SSW,212,4.0,4.0,22,0.00,,,0.00,VWS V14.01,2013-03-12 03:28:00,
2013-03-11 20:33:00,44.8,8.3,30.14,SW,223,0.0,0.0,22,0.00,,,0.00,VWS V14.01,2013-03-12 03:33:00,
2013-03-11 20:39:00,45.1,8.6,30.14,WSW,247,3.1,3.1,22,0.00,,,0.00,VWS V14.01,2013-03-12 03:39:00,
2013-03-11 20:44:00,45.3,8.7,30.14,WSW,247,0.0,0.0,22,0.00,,,0.00,VWS V14.01,2013-03-12 03:44:00,
2013-03-11 20:50:00,45.3,8.7,30.14,WSW,247,0.0,0.0,22,0.00,,,0.00,VWS V14.01,2013-03-12 03:50:00,
2013-03-11 20:55:00,45.1,8.6,30.14,WSW,247,0.0,0.0,22,0.00,,,0.00,VWS V14.01,2013-03-12 03:55:00,
2013-03-11 21:03:00,44.4,10.8,30.14,WSW,244,0.0,0.0,25,0.00,,,0.00,VWS V14.01,2013-03-12 04:03:00,
2013-03-11 21:05:00,44.2,10.7,30.14,WSW,244,0.0,0.0,25,0.00,,,0.00,VWS V14.01,2013-03-12 04:05:00,
2013-03-11 21:08:00,44.2,10.7,30.14,West,262,0.0,0.0,25,0.00,,,0.00,VWS V14.01,2013-03-12 04:08:00,
2013-03-11 21:14:00,44.2,10.7,30.14,West,262,0.0,0.0,25,0.00,,,0.00,VWS V14.01,2013-03-12 04:14:00,
2013-03-11 21:19:00,44.2,10.7,30.14,West,266,2.7,2.7,25,0.00,,,0.00,VWS V14.01,2013-03-12 04:19:00,
2013-03-11 21:25:00,44.2,10.7,30.14,West,264,4.0,4.0,25,0.00,,,0.00,VWS V14.01,2013-03-12 04:25:00,
2013-03-11 21:27:00,44.2,10.7,30.14,WSW,252,0.0,4.0,25,0.00,,,0.00,VWS V14.01,2013-03-12 04:27:00,
2013-03-11 21:32:00,44.6,11.0,30.14,SW,226,5.8,6.3,25,0.00,,,0.00,VWS V14.01,2013-03-12 04:32:00,
2013-03-11 21:37:00,44.4,10.8,30.14,SW,219,3.1,3.1,25,0.00,,,0.00,VWS V14.01,2013-03-12 04:37:00,
2013-03-11 21:43:00,44.2,10.7,30.14,West,266,2.7,2.7,25,0.00,,,0.00,VWS V14.01,2013-03-12 04:43:00,
2013-03-11 21:49:00,44.1,13.1,30.14,NW,312,0.0,0.0,28,0.00,,,0.00,VWS V14.01,2013-03-12 04:49:00,
2013-03-11 21:55:00,43.7,12.8,30.14,NW,312,0.0,0.0,28,0.00,,,0.00,VWS V14.01,2013-03-12 04:55:00,
2013-03-11 22:00:00,43.5,12.6,30.14,NW,312,0.0,0.0,28,0.00,,,0.00,VWS V14.01,2013-03-12 05:00:00,
2013-03-11 22:05:00,43.5,12.6,30.14,SSW,205,5.8,5.8,28,0.00,,,0.00,VWS V14.01,2013-03-12 05:05:00,
2013-03-11 22:10:00,43.3,12.4,30.14,WSW,257,0.0,0.0,28,0.00,,,0.00,VWS V14.01,2013-03-12 05:10:00,
2013-03-11 22:15:00,43.0,12.1,30.14,SW,221,4.0,5.4,28,0.00,,,0.00,VWS V14.01,2013-03-12 05:15:00,
2013-03-11 22:21:00,42.4,12.4,30.14,SSW,213,4.0,4.0,29,0.00,,,0.00,VWS V14.01,2013-03-12 05:21:00,
2013-03-11 22:26:00,42.1,12.1,30.14,SW,220,5.4,5.4,29,0.00,,,0.00,VWS V14.01,2013-03-12 05:26:00,
2013-03-11 22:31:00,41.7,11.8,30.14,SW,224,5.4,5.4,29,0.00,,,0.00,VWS V14.01,2013-03-12 05:31:00,
2013-03-11 22:36:00,41.4,11.5,30.14,WSW,237,5.4,5.4,29,0.00,,,0.00,VWS V14.01,2013-03-12 05:36:00,
2013-03-11 22:41:00,40.8,11.0,30.14,SW,228,6.3,6.3,29,0.00,,,0.00,VWS V14.01,2013-03-12 05:41:00,
2013-03-11 22:47:00,40.3,10.6,30.14,SW,231,3.6,6.3,29,0.00,,,0.00,VWS V14.01,2013-03-12 05:47:00,
2013-03-11 22:52:00,39.7,10.1,30.14,SW,217,5.8,6.3,29,0.00,,,0.00,VWS V14.01,2013-03-12 05:52:00,
2013-03-11 22:58:00,39.6,9.9,30.14,SSW,204,5.8,7.2,29,0.00,,,0.00,VWS V14.01,2013-03-12 05:58:00,
2013-03-11 23:03:00,39.4,9.8,30.14,SSW,209,5.4,6.3,29,0.00,,,0.00,VWS V14.01,2013-03-12 06:03:00,
2013-03-11 23:09:00,39.2,9.6,30.14,SSW,211,5.4,6.3,29,0.00,,,0.00,VWS V14.01,2013-03-12 06:09:00,
2013-03-11 23:14:00,38.8,10.1,30.14,SW,231,4.0,5.8,30,0.00,,,0.00,VWS V14.01,2013-03-12 06:14:00,
2013-03-11 23:20:00,38.5,9.8,30.14,SW,232,0.0,5.4,30,0.00,,,0.00,VWS V14.01,2013-03-12 06:20:00,
2013-03-11 23:25:00,38.3,9.6,30.14,SW,217,4.0,4.0,30,0.00,,,0.00,VWS V14.01,2013-03-12 06:25:00,
2013-03-11 23:31:00,37.9,8.5,30.14,SW,232,4.0,5.4,29,0.00,,,0.00,VWS V14.01,2013-03-12 06:31:00,
2013-03-11 23:37:00,37.6,8.2,30.14,SSW,211,0.0,0.0,29,0.00,,,0.00,VWS V14.01,2013-03-12 06:37:00,
2013-03-11 23:43:00,37.4,8.1,30.14,SW,227,0.0,0.0,29,0.00,,,0.00,VWS V14.01,2013-03-12 06:43:00,
2013-03-11 23:48:00,37.2,8.6,30.14,SW,234,3.1,3.1,30,0.00,,,0.00,VWS V14.01,2013-03-12 06:48:00,
2013-03-11 23:53:00,37.0,8.5,30.14,SW,215,3.6,3.6,30,0.00,,,0.00,VWS V14.01,2013-03-12 06:53:00,
2013-03-11 23:58:00,36.9,8.3,30.14,SW,215,3.6,3.6,30,0.00,,,0.00,VWS V14.01,2013-03-12 06:58:00,